This is the latest recevied weather packets stored in our database for station/object KR0L-13. If no packets are shown the sender has not sent any weather packets the latest 10 day(s).
| Time | Temp. | Humidity | Pressure | Rain* | Wind** | Luminosity | Snow |
|---|---|---|---|---|---|---|---|
| 1777834222 | 30° C | 17% | 1012.1 hPa | 0 mm | - | - | - |
| 1777833622 | 29.44° C | 19% | 1012.4 hPa | 0 mm | - | - | - |
| 1777833022 | 29.44° C | 20% | 1012.8 hPa | 0 mm | - | - | - |
| 1777832422 | 29.44° C | 20% | 1012.9 hPa | 0 mm | - | - | - |
| 1777831822 | 28.89° C | 20% | 1013.1 hPa | 0 mm | - | - | - |
| 1777831222 | 28.89° C | 21% | 1013.4 hPa | 0 mm | - | - | - |
| 1777830622 | 28.33° C | 21% | 1013.5 hPa | 0 mm | - | - | - |
| 1777830022 | 27.78° C | 25% | 1013.8 hPa | 0 mm | - | - | - |
| 1777829422 | 27.78° C | 28% | 1013.9 hPa | 0 mm | - | - | - |
| 1777828822 | 27.22° C | 31% | 1014.3 hPa | 0 mm | - | - | - |
| 1777828222 | 26.11° C | 32% | 1014.3 hPa | 0 mm | - | - | - |
| 1777827622 | 25.56° C | 31% | 1014.3 hPa | 0 mm | - | - | - |
| 1777827022 | 25.56° C | 33% | 1014.5 hPa | 0 mm | - | - | - |
| 1777826422 | 25° C | 34% | 1014.5 hPa | 0 mm | - | - | - |
| 1777825822 | 23.89° C | 37% | 1014.7 hPa | 0 mm | - | - | - |
| 1777825222 | 23.89° C | 39% | 1014.8 hPa | 0 mm | - | - | - |
| 1777824622 | 23.33° C | 39% | 1015 hPa | 0 mm | - | - | - |
| 1777824022 | 22.22° C | 40% | 1014.9 hPa | 0 mm | - | - | - |
| 1777823422 | 21.67° C | 42% | 1014.7 hPa | 0 mm | - | - | - |
| 1777822822 | 21.11° C | 44% | 1014.7 hPa | 0 mm | - | - | - |
| 1777822222 | 20.56° C | 45% | 1014.6 hPa | 0 mm | - | - | - |
| 1777821622 | 20° C | 47% | 1014.6 hPa | 0 mm | - | - | - |
| 1777821022 | 19.44° C | 49% | 1014.8 hPa | 0 mm | - | - | - |
| 1777820422 | 18.33° C | 50% | 1014.9 hPa | 0 mm | - | - | - |
| 1777819822 | 18.33° C | 52% | 1014.9 hPa | 0 mm | - | - | - |
* Rain latest hour (hover to see other rain measurements)
** Current wind speed in m/s (hover to see current wind gust speed)